Location: Julian California
(33.0790°N, 116.6010°W)
Time: 00:12:45
(UTC-07:00)

Cosmos 44 - Pass Details

Date: 19 May 2017
Orbit: 594 x 769 km, 65.1° (Epoch: 18 October)

Event Time Altitude Azimuth Distance (km) Brightness Sun altitude
Rises 20:19:23 0° 339° (NNW) 2,830 7.4 -7.7°
Reaches altitude 10° 20:21:42 10° 346° (NNW) 1,926 6.3 -8.2°
Maximum altitude 20:25:50 44° 59° (ENE) 824 3.5 -8.9°
Enters shadow 20:29:38 12° 130° (SE) 1,803 4.8 -9.6°
